Back to catalog

FENGYUN 1C DEB

AliveSSO
NORAD 35155·DEBRIS·🇨🇳 China

Launched May 10, 1999 from Taiyuan Satellite Launch Center

Loading…

Next Passes (next 24 hours)

TLE

FreshSource: Space-Track

Epoch: Sep 14, 2026, 18:38 UTC

1 35155U 99025DMK 26257.77678356  .00000792  00000-0  39164-3 0  9999
2 35155  98.4981 263.3813 0025014 355.5468   4.5482 14.19903190766306

Track FENGYUN 1C DEB in real time with AllMySat

Download on the App Store